Regional Weather Roundup
Issued by NWS

Home | Current Version | Previous Version | Text Only | Print | Product List | Glossary On
Versions: 1 2 3 4 5 6 7 8 9 10 11 12 13 14 15 16 17 18 19 20 21 22 23 24 25 26 27
000
ASUS44 KLIX 250506
RWRLA
LOUISIANA WEATHER ROUNDUP
NATIONAL WEATHER SERVICE NEW ORLEANS LA
1200 AM CDT WED APR 25 2018

NOTE: "FAIR" INDICATES FEW OR NO CLOUDS BELOW 12,000 FEET WITH NO
      SIGNIFICANT WEATHER AND/OR OBSTRUCTIONS TO VISIBILITY.
      SKY/WX - SKY CONDITION AND SIGNIFICANT WEATHER.
      TMP - AIR TEMPERATURE.    DP   - DEWPOINT TEMPERATURE.
      RH  - RELATIVE HUMIDITY.  PRES - PRESSURE.
      HX  - HEAT INDEX.         WCI  - WIND CHILL INDEX.

*  THESE STATIONS ARE NOT NWS OR FAA STATIONS AND ARE NOT UNDER
   NWS QUALITY CONTROL.

LAZ040-048-061>063-065-066-069-250600-
SOUTHEAST LOUISIANA

CITY           SKY/WX    TMP DP  RH WIND       PRES   REMARKS
N.O. INTL ARPT FAIR      70  60  70 N5        30.05R
N.O. LAKEFRONT FAIR      70  59  68 N12       30.05S
N.O. DOWNTOWN* FAIR      70  57  63 N5        30.06R
RESERVE*       FAIR      62  57  84 CALM      30.06R
SLIDELL        FAIR      59  55  87 CALM      30.05R
BATON ROUGE    FAIR      59  56  89 CALM      30.06R
BOOTHVILLE     FAIR      69  60  73 N5        30.04R
BELLE CHASSE   FAIR      59  59 100 CALM      30.04S
BOGALUSA*      FAIR      57  54  88 CALM      30.06S
GALLIANO*      FAIR      60  56  86 CALM      30.05R
NEW ROADS*     FAIR      58  52  79 CALM      30.06R
GONZALES*      FAIR      59  57  94 CALM      30.05S
HAMMOND*       FAIR      57  55  94 CALM      30.06R
HOUMA*         FAIR      63  56  79 N7        30.05R
PORT FOURCHON* CLEAR     70  61  73 N7        30.04S

$$

LAZ041-044-053-054-250600-
SOUTHWEST LOUISIANA

CITY           SKY/WX    TMP DP  RH WIND       PRES   REMARKS
LAKE CHARLES   FAIR      63  60  90 CALM      30.06R
LAFAYETTE      FAIR      62  60  93 CALM      30.05S
PATTERSON      FAIR      61  60  97 CALM      30.06R
SALT POINT       N/A    N/A N/A N/A CALM      30.04R
NEW IBERIA     FAIR      63  57  81 CALM      30.05S
CHENAULT AIRPK FAIR      63  60  90 CALM      30.07R

$$

LAZ027-028-250600-
CENTRAL LOUISIANA

CITY           SKY/WX    TMP DP  RH WIND       PRES   REMARKS
FORT POLK      NOT AVBL
ALEXANDRIA INT FAIR      60  56  86 CALM      30.04R
ALEXANDRIA     FAIR      56  56 100 CALM      30.05R

$$

LAZ001-002-250600-
NORTHWEST LOUISIANA

CITY           SKY/WX    TMP DP  RH WIND       PRES   REMARKS
SHREVEPORT     FAIR      60  57  89 SW3       30.04R
BARKSDALE AFB  NOT AVBL
DTN SHREVEPORT FAIR      65  60  84 CALM      30.04R

$$

LAZ014-016-250600-
NORTHEAST LOUISIANA

CITY           SKY/WX    TMP DP  RH WIND       PRES   REMARKS
MONROE         FAIR      59  58  96 SW3       30.05S
TALLULAH       FAIR      57  57 100 CALM      30.05R

$$





USA.gov is the U.S. government's official web portal to all federal, state and local government web resources and services.